ISR512 LGRP-LLBG

Flight info

Callsign ISR512
Flight time N/A
Altitude 37000
Route NILAS UL609 ALKIS DCT MAROS DCT APLON L609 ZUKKO
Aircraft A320/M-SDE2FGIJ1LORVWY/SB1

Departure

Time N/A
Airport Rhodes International Airport "Diagoras" (LGRP)

Arrival

Time 2026-05-07 14:48
Airport Ben Gurion International Airport (LLBG)
Time Latitude Longitude Altitude Speed Heading
2026-05-07 13:51 34.85837 29.82118 37126 ft 477 kts 123°
2026-05-07 13:51 34.83966 29.85450 37129 ft 477 kts 123°
2026-05-07 13:51 34.82095 29.88787 37326 ft 478 kts 123°
2026-05-07 13:52 34.80855 29.90998 37480 ft 478 kts 123°
2026-05-07 13:52 34.78976 29.94335 37731 ft 477 kts 123°
2026-05-07 13:52 34.77098 29.97661 37950 ft 477 kts 123°
2026-05-07 13:52 34.75220 30.00992 38174 ft 477 kts 122°
2026-05-07 13:53 34.73405 30.04363 38411 ft 476 kts 121°
2026-05-07 13:53 34.71669 30.07775 38681 ft 474 kts 120°
2026-05-07 13:53 34.69979 30.11207 38897 ft 473 kts 119°
2026-05-07 13:53 34.68303 30.14638 39081 ft 473 kts 120°
2026-05-07 13:54 34.66616 30.18066 39130 ft 473 kts 120°
2026-05-07 13:54 34.63177 30.24891 39135 ft 474 kts 121°
2026-05-07 13:55 34.59682 30.31672 39124 ft 474 kts 121°
2026-05-07 13:55 34.56189 30.38448 39130 ft 473 kts 121°
2026-05-07 13:56 34.52717 30.45228 39127 ft 473 kts 121°
2026-05-07 13:56 34.49245 30.52004 39129 ft 473 kts 121°
2026-05-07 13:57 34.45764 30.58775 39127 ft 473 kts 121°
2026-05-07 13:57 34.42294 30.65494 39130 ft 473 kts 121°
2026-05-07 13:58 34.38797 30.72239 39130 ft 473 kts 121°
2026-05-07 13:58 34.35306 30.78984 39133 ft 473 kts 121°
2026-05-07 13:59 34.31820 30.85732 39130 ft 473 kts 121°
2026-05-07 13:59 34.28331 30.92465 39130 ft 472 kts 122°
2026-05-07 14:00 34.24837 30.99177 39131 ft 472 kts 122°
2026-05-07 14:00 34.21326 31.05870 39132 ft 471 kts 122°
2026-05-07 14:01 34.17818 31.12546 39131 ft 471 kts 122°
2026-05-07 14:01 34.14321 31.19225 39136 ft 470 kts 122°
2026-05-07 14:02 34.10836 31.25899 39132 ft 470 kts 123°
2026-05-07 14:02 34.07351 31.32553 39137 ft 469 kts 123°
2026-05-07 14:03 34.03857 31.39181 39137 ft 468 kts 123°
2026-05-07 14:03 34.00357 31.45798 39131 ft 468 kts 123°
2026-05-07 14:04 33.97459 31.51289 39136 ft 467 kts 123°
2026-05-07 14:04 33.96805 31.52554 39134 ft 465 kts 110°
2026-05-07 14:04 33.95141 31.56140 38698 ft 450 kts 123°
2026-05-07 14:05 33.93494 31.59281 39094 ft 442 kts 124°
2026-05-07 14:05 33.90032 31.65491 39096 ft 452 kts 125°
2026-05-07 14:06 33.86516 31.71859 39096 ft 460 kts 124°
2026-05-07 14:06 33.83045 31.78358 39096 ft 462 kts 123°
2026-05-07 14:07 33.79597 31.84884 39095 ft 463 kts 123°
2026-05-07 14:07 33.76131 31.91405 39095 ft 463 kts 124°
2026-05-07 14:08 33.72653 31.97912 39095 ft 463 kts 124°
2026-05-07 14:08 33.69169 32.04414 39095 ft 463 kts 124°
2026-05-07 14:09 33.65680 32.10902 39095 ft 462 kts 124°
2026-05-07 14:09 33.62186 32.17382 39096 ft 462 kts 124°
2026-05-07 14:10 33.58697 32.23865 39094 ft 463 kts 124°
2026-05-07 14:10 33.55208 32.30341 39110 ft 462 kts 124°
2026-05-07 14:11 33.51719 32.36798 39110 ft 461 kts 124°
2026-05-07 14:11 33.48226 32.43244 39070 ft 462 kts 124°
2026-05-07 14:11 33.46488 32.46447 38443 ft 467 kts 124°
2026-05-07 14:12 33.44697 32.49741 37921 ft 465 kts 124°
2026-05-07 14:12 33.42953 32.52946 37316 ft 467 kts 124°
2026-05-07 14:12 33.41176 32.56209 36661 ft 468 kts 124°
2026-05-07 14:12 33.39390 32.59490 35915 ft 472 kts 124°
2026-05-07 14:13 33.37605 32.62769 35478 ft 469 kts 124°
2026-05-07 14:13 33.35832 32.66030 34972 ft 467 kts 124°
2026-05-07 14:13 33.34066 32.69285 34458 ft 465 kts 124°
2026-05-07 14:13 33.32305 32.72527 33948 ft 464 kts 125°
2026-05-07 14:14 33.30545 32.75753 33425 ft 463 kts 125°
2026-05-07 14:14 33.28787 32.78966 32908 ft 461 kts 125°
2026-05-07 14:14 33.27036 32.82160 32390 ft 458 kts 125°
2026-05-07 14:14 33.25292 32.85338 31874 ft 457 kts 125°
2026-05-07 14:15 33.23553 32.88505 31370 ft 454 kts 125°
2026-05-07 14:15 33.21823 32.91654 30863 ft 453 kts 125°
2026-05-07 14:15 33.20095 32.94788 30378 ft 451 kts 125°
2026-05-07 14:15 33.18375 32.97903 29882 ft 448 kts 125°
2026-05-07 14:16 33.16669 33.00999 29421 ft 445 kts 125°
2026-05-07 14:16 33.14976 33.04080 28946 ft 443 kts 125°
2026-05-07 14:16 33.13294 33.07143 28492 ft 439 kts 125°
2026-05-07 14:16 33.11622 33.10177 28040 ft 437 kts 125°
2026-05-07 14:17 33.09957 33.13198 27595 ft 435 kts 125°
2026-05-07 14:17 33.08297 33.16198 27143 ft 433 kts 125°
2026-05-07 14:17 33.06641 33.19185 26686 ft 431 kts 124°
2026-05-07 14:17 33.04991 33.22160 26251 ft 429 kts 124°
2026-05-07 14:18 33.03360 33.25106 25988 ft 423 kts 124°
2026-05-07 14:18 33.01730 33.28049 25315 ft 428 kts 124°
2026-05-07 14:18 33.00085 33.31011 24832 ft 428 kts 124°
2026-05-07 14:18 32.98448 33.33952 24370 ft 427 kts 124°
2026-05-07 14:19 32.96817 33.36883 24086 ft 422 kts 124°
2026-05-07 14:19 32.95201 33.39786 23637 ft 420 kts 124°
2026-05-07 14:19 32.93592 33.42673 23233 ft 417 kts 124°
2026-05-07 14:19 32.91994 33.45539 22829 ft 414 kts 124°
2026-05-07 14:20 32.90406 33.48388 22412 ft 411 kts 124°
2026-05-07 14:20 32.88829 33.51212 21993 ft 408 kts 124°
2026-05-07 14:20 32.87283 33.53980 21566 ft 406 kts 124°
2026-05-07 14:20 32.85726 33.56760 21132 ft 401 kts 124°
2026-05-07 14:21 32.84172 33.59532 20357 ft 395 kts 124°
2026-05-07 14:21 32.82631 33.62209 19555 ft 389 kts 129°
2026-05-07 14:21 32.80834 33.64543 19052 ft 386 kts 135°
2026-05-07 14:21 32.78976 33.66825 18603 ft 383 kts 135°
2026-05-07 14:22 32.77132 33.69100 18210 ft 379 kts 135°
2026-05-07 14:22 32.75306 33.71361 17720 ft 378 kts 135°
2026-05-07 14:22 32.73493 33.73602 17277 ft 375 kts 135°
2026-05-07 14:22 32.71693 33.75821 16810 ft 373 kts 135°
2026-05-07 14:23 32.69910 33.78018 16443 ft 367 kts 135°
2026-05-07 14:23 32.68139 33.80196 16039 ft 364 kts 135°
2026-05-07 14:23 32.66383 33.82350 15586 ft 362 kts 135°
2026-05-07 14:23 32.64641 33.84489 15132 ft 360 kts 135°
2026-05-07 14:24 32.62920 33.86608 14729 ft 356 kts 135°
2026-05-07 14:24 32.61213 33.88714 14352 ft 352 kts 135°
2026-05-07 14:24 32.59516 33.90804 13907 ft 350 kts 135°
2026-05-07 14:24 32.57834 33.92869 13467 ft 348 kts 135°
2026-05-07 14:25 32.56161 33.94916 13115 ft 343 kts 135°
2026-05-07 14:25 32.54509 33.96950 12723 ft 340 kts 135°
2026-05-07 14:25 32.52903 33.98953 12532 ft 331 kts 135°
2026-05-07 14:25 32.51341 34.00911 12305 ft 324 kts 135°
2026-05-07 14:26 32.49813 34.02829 12074 ft 318 kts 135°
2026-05-07 14:26 32.48305 34.04716 11848 ft 314 kts 135°
2026-05-07 14:26 32.46807 34.06587 11638 ft 312 kts 135°
2026-05-07 14:26 32.45314 34.08447 11405 ft 311 kts 135°
2026-05-07 14:27 32.43873 34.10342 11175 ft 310 kts 128°
2026-05-07 14:27 32.42799 34.12544 10948 ft 309 kts 113°
2026-05-07 14:27 32.42203 34.14984 10708 ft 309 kts 102°
2026-05-07 14:27 32.41771 34.17466 10454 ft 307 kts 102°
2026-05-07 14:28 32.41340 34.19899 10206 ft 305 kts 102°
2026-05-07 14:28 32.40903 34.22343 9966 ft 301 kts 102°
2026-05-07 14:28 32.40470 34.24752 9748 ft 299 kts 102°
2026-05-07 14:28 32.40038 34.27142 9506 ft 296 kts 102°
2026-05-07 14:29 32.39607 34.29517 9262 ft 294 kts 102°
2026-05-07 14:29 32.39179 34.31872 9035 ft 292 kts 102°
2026-05-07 14:29 32.38756 34.34213 8918 ft 291 kts 102°
2026-05-07 14:29 32.38334 34.36552 8806 ft 291 kts 102°
2026-05-07 14:30 32.37910 34.38889 8686 ft 290 kts 102°
2026-05-07 14:30 32.37485 34.41218 8568 ft 289 kts 102°
2026-05-07 14:30 32.37060 34.43539 8453 ft 288 kts 102°
2026-05-07 14:30 32.36636 34.45852 8340 ft 288 kts 102°
2026-05-07 14:31 32.36215 34.48164 8224 ft 287 kts 102°
2026-05-07 14:31 32.35777 34.50465 8106 ft 287 kts 107°
2026-05-07 14:31 32.34983 34.52613 8013 ft 286 kts 122°
2026-05-07 14:31 32.33749 34.54447 7963 ft 286 kts 134°
2026-05-07 14:32 32.32367 34.56134 7906 ft 285 kts 134°
2026-05-07 14:32 32.30987 34.57820 7813 ft 285 kts 134°
2026-05-07 14:32 32.29613 34.59502 7696 ft 284 kts 134°
2026-05-07 14:32 32.28243 34.61183 7570 ft 284 kts 134°
2026-05-07 14:33 32.26877 34.62861 7445 ft 283 kts 133°
2026-05-07 14:33 32.25529 34.64517 7320 ft 283 kts 133°
2026-05-07 14:33 32.24151 34.66208 7210 ft 282 kts 134°
2026-05-07 14:33 32.22810 34.67852 7094 ft 281 kts 133°
2026-05-07 14:34 32.21453 34.69512 7001 ft 280 kts 133°
2026-05-07 14:34 32.20077 34.71193 6901 ft 281 kts 133°
2026-05-07 14:34 32.18742 34.72823 6791 ft 280 kts 133°
2026-05-07 14:34 32.17390 34.74476 6679 ft 280 kts 133°
2026-05-07 14:35 32.16069 34.76156 6553 ft 278 kts 127°
2026-05-07 14:35 32.15067 34.78098 6428 ft 277 kts 114°
2026-05-07 14:35 32.14266 34.80162 6326 ft 277 kts 114°
2026-05-07 14:35 32.13454 34.82220 6211 ft 276 kts 114°
2026-05-07 14:36 32.12641 34.84271 6082 ft 276 kts 114°
2026-05-07 14:36 32.11829 34.86317 5964 ft 275 kts 114°
2026-05-07 14:36 32.11019 34.88354 6007 ft 275 kts 114°
2026-05-07 14:36 32.10205 34.90401 6016 ft 276 kts 114°
2026-05-07 14:37 32.09392 34.92453 6007 ft 276 kts 114°
2026-05-07 14:37 32.07765 34.96563 6012 ft 277 kts 115°
2026-05-07 14:37 32.06951 34.98618 6008 ft 277 kts 115°
2026-05-07 14:38 32.06136 35.00673 6004 ft 277 kts 115°
2026-05-07 14:38 32.05320 35.02727 6007 ft 277 kts 115°
2026-05-07 14:38 32.04504 35.04781 6021 ft 271 kts 115°
2026-05-07 14:38 32.03708 35.06779 5702 ft 271 kts 115°
2026-05-07 14:39 32.02923 35.08756 5486 ft 258 kts 115°
2026-05-07 14:39 32.02188 35.10607 5361 ft 240 kts 115°
2026-05-07 14:39 32.01507 35.12321 5255 ft 222 kts 115°
2026-05-07 14:39 32.00889 35.13877 5200 ft 203 kts 115°
2026-05-07 14:40 32.00241 35.15293 5101 ft 192 kts 130°
2026-05-07 14:40 31.99188 35.16223 5005 ft 190 kts 159°
2026-05-07 14:40 31.97897 35.16452 4876 ft 189 kts 181°
2026-05-07 14:40 31.96587 35.16425 4744 ft 188 kts 181°
2026-05-07 14:41 31.95284 35.16401 4614 ft 187 kts 182°
2026-05-07 14:41 31.94011 35.16134 4506 ft 186 kts 195°
2026-05-07 14:41 31.92761 35.15739 4391 ft 186 kts 196°
2026-05-07 14:41 31.91509 35.15344 4278 ft 186 kts 196°
2026-05-07 14:42 31.90696 35.14978 4187 ft 185 kts 213°
2026-05-07 14:42 31.89856 35.13872 4092 ft 183 kts 246°
2026-05-07 14:42 31.89646 35.12409 4020 ft 183 kts 272°
2026-05-07 14:42 31.89683 35.10910 4003 ft 184 kts 271°
2026-05-07 14:43 31.89771 35.09436 3804 ft 181 kts 284°
2026-05-07 14:43 31.90278 35.08101 3959 ft 182 kts 300°
2026-05-07 14:43 31.90930 35.06807 3716 ft 184 kts 302°
2026-05-07 14:43 31.91596 35.05527 3458 ft 183 kts 302°
2026-05-07 14:44 31.92265 35.04245 3196 ft 185 kts 302°
2026-05-07 14:44 31.92933 35.02965 2945 ft 183 kts 303°
2026-05-07 14:44 31.93578 35.01729 2712 ft 166 kts 303°
2026-05-07 14:44 31.94151 35.00631 2484 ft 150 kts 303°
2026-05-07 14:45 31.94675 34.99627 2265 ft 140 kts 304°
2026-05-07 14:45 31.95178 34.98666 2064 ft 136 kts 303°
2026-05-07 14:45 31.95671 34.97723 1883 ft 135 kts 304°
2026-05-07 14:45 31.96159 34.96788 1694 ft 134 kts 302°
2026-05-07 14:46 31.96643 34.95856 1474 ft 133 kts 304°
2026-05-07 14:46 31.97124 34.94926 1289 ft 133 kts 304°
2026-05-07 14:46 31.97603 34.93999 1107 ft 132 kts 304°
2026-05-07 14:46 31.98085 34.93079 914 ft 132 kts 304°
2026-05-07 14:47 31.98564 34.92154 722 ft 131 kts 304°
2026-05-07 14:47 31.99047 34.91244 560 ft 131 kts 304°
2026-05-07 14:47 31.99529 34.90331 371 ft 131 kts 303°
2026-05-07 14:47 31.99997 34.89420 172 ft 131 kts 304°
2026-05-07 14:48 32.00437 34.88575 123 ft 104 kts 301°
2026-05-07 14:48 32.00726 34.88017 118 ft 55 kts 302°
2026-05-07 14:48 32.00895 34.87700 121 ft 43 kts 301°
2026-05-07 14:48 32.01027 34.87420 119 ft 32 kts 291°
2026-05-07 14:49 32.01063 34.87212 121 ft 26 kts 272°
2026-05-07 14:49 32.01037 34.87048 117 ft 18 kts 212°
2026-05-07 14:49 32.00986 34.87090 119 ft 10 kts 121°
2026-05-07 14:49 32.00945 34.87171 118 ft 13 kts 121°
2026-05-07 14:50 32.00895 34.87268 118 ft 15 kts 121°
2026-05-07 14:50 32.00834 34.87386 119 ft 18 kts 121°
2026-05-07 14:50 32.00764 34.87520 118 ft 20 kts 121°
2026-05-07 14:50 32.00689 34.87666 116 ft 20 kts 121°
2026-05-07 14:51 32.00611 34.87815 117 ft 23 kts 121°
2026-05-07 14:51 32.00536 34.87949 120 ft 16 kts 139°
2026-05-07 14:51 32.00439 34.87915 116 ft 16 kts 213°
2026-05-07 14:51 32.00337 34.87839 119 ft 19 kts 212°
2026-05-07 14:52 32.00267 34.87856 117 ft 11 kts 122°
2026-05-07 14:52 32.00254 34.87881 116 ft 0 kts 121°
2026-05-07 14:52 32.00252 34.87886 120 ft 0 kts 121°